Regional Weather Roundup
Issued by NWS

Home | Current Version | Previous Version | Graphics & Text | Print | Product List | Glossary On
Versions: 1 2 3 4 5 6 7 8 9 10 11 12 13 14 15 16 17 18 19 20 21 22 23 24 25 26 27 28 29 30 31 32 33 34 35 36 37 38 39 40 41 42 43 44 45 46 47 48 49 50
253
ASUS44 KJAN 230003
RWRMS

MISSISSIPPI HOURLY WEATHER ROUNDUP
NATIONAL WEATHER SERVICE JACKSON MS
600 PM CST MON DEC 22 2014

NOTE: "FAIR: INDICATES FEW OR NO CLOUDS BELOW 12,000 FEET WITH NO
SIGNIFICANT WEATHER AND/OR OBSTRUCTIONS TO VISIBILITY.

MSZ001>002-007>008-010>013-018>021-025>028-034>036-230100-
NORTHWEST MISSISSIPPI

CITY           SKY/WX    TMP DP  RH WIND       PRES   REMARKS
CLARKSDALE     CLOUDY    59  57  94 SE8       29.63R
CLEVELAND      CLOUDY    60  59  98 S9        29.63R
GREENWOOD      CLOUDY    60  57  89 S9        29.65R
6HR MIN TEMP:  59; 6HR MAX TEMP:  62; 6HR PCP: TRACE;

GREENVILLE     CLOUDY    61  57  87 SE8       29.62R
6HR MIN TEMP:  59; 6HR MAX TEMP:  63;

GRENADA        CLOUDY    55  55 100 CALM      29.66R
OLIVE BRANCH   CLOUDY    54  54 100 S8        29.63S
OXFORD         CLOUDY    54  52  94 SE12      29.67R FOG
TUNICA         CLOUDY    55  54  94 SE7       29.63R
$$

MSZ003>006-009-014>017-022>024-029>033-037>039-230100-
NORTHEAST MISSISSIPPI

CITY           SKY/WX    TMP DP  RH WIND       PRES   REMARKS
COLUMBUS AFB   CLOUDY    56  56 100 SE8       29.71R
6HR MIN TEMP:  53; 6HR MAX TEMP:  56; 6HR PCP:  0.02;

CORINTH        RAIN      54  52  94 SW8G15    29.68R
GOLDN TRIANGLE CLOUDY    55  54  94 MISG      29.70R FOG
STARKVILLE     FOG       54  54 100 SE8       29.69F VSB 3/4
TUPELO         CLOUDY    54  52  93 S10       29.69R FOG
6HR MIN TEMP:  53; 6HR MAX TEMP:  54; 6HR PCP: TRACE;

$$

MSZ040-058-230100-
CENTRAL MISSISSIPPI

CITY           SKY/WX    TMP DP  RH WIND       PRES   REMARKS
JACKSON INTL   PTCLDY    62  60  93 SE12      29.66S
6HR MIN TEMP:  58; 6HR MAX TEMP:  64;

JACKSON HAWKNS PTCLDY    61  59  93 SE7       29.66S FOG
6HR MIN TEMP:  59; 6HR MAX TEMP:  64; 6HR PCP: TRACE;

MERIDIAN KEY   CLOUDY    62  60  93 S6        29.72R
6HR MIN TEMP:  58; 6HR MAX TEMP:  62; 6HR PCP: TRACE;

MERIDIAN NAS   FOG       58  58 100 SE7       29.73R VSB 1
6HR MIN TEMP:  55; 6HR MAX TEMP:  58; 6HR PCP: TRACE;

RAYMOND        MOCLDY    63  57  82 SE3       29.65S FOG
VICKSBURG      CLOUDY    66  59  78 SW3       29.64R
6HR MIN TEMP:  60; 6HR MAX TEMP:  68; 6HR PCP: TRACE;

$$

MSZ059>079-230100-
SOUTH MISSISSIPPI

CITY           SKY/WX    TMP DP  RH WIND       PRES   REMARKS
HATTIESBURG    MOCLDY    66  65  96 S6        29.71R
6HR MIN TEMP:  66; 6HR MAX TEMP:  69; 6HR PCP:  0.01;

MCCOMB         PTCLDY    67  62  84 S9        29.67R
6HR MIN TEMP:  63; 6HR MAX TEMP:  71; 6HR PCP: TRACE;

NATCHEZ        PTCLDY    64  61  88 S9G16     29.64S
6HR MIN TEMP:  63; 6HR MAX TEMP:  70;

PINE BELT      CLOUDY    64  63  94 SE8       29.70S
6HR MIN TEMP:  61; 6HR MAX TEMP:  66;

$$

MSZ080>082-230100-
COASTAL MISSISSIPPI

CITY           SKY/WX    TMP DP  RH WIND       PRES   REMARKS
BAY ST LOUIS   CLOUDY    68  63  83 S12       29.73R
BILOXI         CLOUDY    64  64 100 S12       29.74S
6HR MIN TEMP:  63; 6HR MAX TEMP:  66; 6HR PCP: TRACE;

PASCAGOULA     PTCLDY    68  65  90 S7        29.75S
6HR MIN TEMP:  68; 6HR MAX TEMP:  71; 6HR PCP: TRACE;

GULFPORT       CLOUDY    65  63  93 S8        29.73S
6HR MIN TEMP:  64; 6HR MAX TEMP:  68; 6HR PCP: TRACE;

$$



USA.gov is the U.S. government's official web portal to all federal, state and local government web resources and services.